FENGYUN 1C DEB

Satellite information

Favourite Embed

Satellite Type and Status

DEBRISIN ORBIT

Key statistics

Satellite FENGYUN 1C DEB at a glance.

Uptime

9613

Days in orbit

Revolutions

≈ 14.3

Per day

Orbit

SSO

Sun Synchronous Orbit

Inclination

98.7

Latest

Satellite identification and parameters

Extended collection of information and parameters for FENGYUN 1C DEB.

Object identification

Identified? True

Debris? True

Object name: FENGYUN 1C DEB

International designator: 1999-025AMP

Object number (NORAD): 30608

Object ID (CCSDS): 30608

Country: PEOPLES REPUBLIC OF CHINA (PRC)

Current information (Y/N): Y

RCS size: MEDIUM

Orbital parameters

Period: 100.861 minutes

Inclination: 98.7239 deg

SMA: 7177.522 km

Apoapsis: 811.652 km

Periapsis: 787.123 km

RAAN: 308.7884 deg

Eccentricy: 0.00170874

Argument of periapsis: 117.382 deg

Mean anomaly: 56.4639 deg

Mean motion: 14.27713139 rev/day

Mean motion (dot): 0.0000499 rev/day2

B* drag term: 0.0020363922 1/REarth

Two-line elements (TLE)

Creation date: Sept. 3, 2025, 2:21 a.m.

Reference frame: TEME

Reference center: EARTH

Epoch: Sept. 2, 2025, 10:21 p.m. UTC

TLE line 0: 0 FENGYUN 1C DEB

TLE line 1: 1 30608U 99025AMP 25245.93128007 .00004990 00000-0 20364-2 0 9999

TLE line 2: 2 30608 98.7239 308.7884 0017087 117.3820 56.4639 14.27713139960006

Live tracking on map

Real-time ground track for satellite FENGYUN 1C DEB.

In-orbit conjunctions

A list of the most updated potential collisions computed for object FENGYUN 1C DEB.

Target Orbit TCA Probability of collision Miss distance Type
METEOR 2-8 DEB LEO 2025-08-26 17:14:44 0.0002445025 127.0 (m) DEBRIS
CZ-6A DEB LEO 2025-08-13 17:38:10 0.0003490216 421.0 (m) DEBRIS
CZ-6A DEB LEO 2025-08-03 01:54:55 0.0001102108 887.0 (m) DEBRIS
FENGYUN 1C DEB SSO 2025-04-27 10:03:51 0.0002498561 155.0 (m) DEBRIS
SL-18 DEB LEO 2024-11-28 06:17:01 0.0003146363 81.0 (m) DEBRIS

Associated space launch

Chinese polar orbiting meteorological satellite

FENGYUN 1C DEB was lifted into orbit during the mission ‘Long March 4B | Feng Yun 1C’, on board a Long March 4B space rocket.

The launch took place on May 10, 1999, 1:33 a.m. from Launch Complex 7.

For more information about the launch, click the button.

Launch to space Long March 4B | Feng Yun 1C
Long March 4B | Feng Yun 1C

Agency: N/A

Status: Launch Successful

Launch date: May 10, 1999, 1:33 a.m. UTC

Rocket: Long March 4B

Launch pad: Launch Complex 7

Location: Taiyuan Satellite Launch Center, People's Republic of China

...

Latest news about this satellite

There are no fresh news available about this satellite. Check back as we update our databases every day.


Newsletter sign-up

Weekly statistics, charts and insights to help you stay on top of the space industry.